Weather History for Billings, MT

Change the Weather History Date:

Thursday, February 28, 2013

  Actual Average Record
Temperature  
Mean Temperature 39 °F 33 °F  
Max Temperature 49 °F 44 °F 71 °F (1992)
Min Temperature 28 °F 23 °F -17 °F (1962)
Degree Days  
Heating Degree Days 26 32  
Month to date heating degree days 882 969  
Since 1 July heating degree days 4561 4965  
Cooling Degree Days 0 0  
Month to date cooling degree days 0 0  
Year to date cooling degree days 0 0  
Moisture  
Dew Point 16 °F    
Average Humidity 42    
Maximum Humidity 58    
Minimum Humidity 26    
Precipitation  
Precipitation 0.00 in 0.02 in 0.34 in (1953)
Month to date precipitation 0.29 0.48  
Year to date precipitation 0.88 0.96  
Snow  
Snow 0.00 in 0.30 in 3.30 in (1979)
Month to date snowfall 4.4 6.2  
Since 1 July snowfall 32.1 34.5  
Snow Depth 0.00 in    
Sea Level Pressure  
Sea Level Pressure 30.25 in    
Wind  
Wind Speed 13 mph (West)    
Max Wind Speed 25 mph    
Max Gust Speed 33 mph    
Visibility 10 miles    
Events      
T = Trace of Precipitation, MM = Missing Value Source: NWS Daily Summary

Daily Weather History Graph

Daily Weather History Graph

Search for Another Location

Airport:

Trip Planner

Search our weather history database for the weather conditions in past years. The results will help you decide how hot, cold, wet, or windy it might be!

Date:

Astronomy

Feb. 28, 2013 Rise Set
Actual Time 6:54 AM MST 5:59 PM MST
Civil Twilight 6:24 AM MST 6:29 PM MST
Nautical Twilight 5:49 AM MST 7:04 PM MST
Astronomical Twilight 5:15 AM MST 7:38 PM MST
Moon 9:44 PM MST (2/28) 7:53 AM MST (2/28)
Length of Visible Light 12h 05m
Length of Day
11h 05m
Waning Gibbous, 90% of the Moon is Illuminated
Feb 28
Waning Gibbous
Mar 4
Last Quarter
Mar 11
New
Mar 19
First Quarter
Mar 27
Full

Hourly Weather History & Observations

Time (MST) Temp. Windchill Dew Point Humidity Pressure Visibility Wind Dir Wind Speed Gust Speed Precip Events Conditions
12:53 AM 33.1 °F 23.0 °F 15.1 °F 48% 30.22 in 10.0 mi WSW 15.0 mph - N/A   Overcast
1:53 AM 32.0 °F 22.5 °F 14.0 °F 48% 30.23 in 10.0 mi SW 12.7 mph - N/A   Mostly Cloudy
2:53 AM 32.0 °F 23.0 °F 15.1 °F 50% 30.24 in 10.0 mi WSW 11.5 mph - N/A   Mostly Cloudy
3:53 AM 33.1 °F 24.4 °F 15.1 °F 48% 30.23 in 10.0 mi West 11.5 mph - N/A   Mostly Cloudy
4:53 AM 28.9 °F 18.2 °F 15.1 °F 56% 30.25 in 10.0 mi SW 13.8 mph - N/A   Partly Cloudy
5:53 AM 28.0 °F 16.1 °F 14.0 °F 56% 30.27 in 10.0 mi WSW 16.1 mph - N/A   Scattered Clouds
6:53 AM 30.0 °F 19.1 °F 14.0 °F 51% 30.27 in 10.0 mi WSW 15.0 mph - N/A   Mostly Cloudy
7:53 AM 28.9 °F 19.8 °F 14.0 °F 54% 30.27 in 10.0 mi SW 10.4 mph - N/A   Mostly Cloudy
8:53 AM 30.9 °F 20.7 °F 14.0 °F 50% 30.28 in 10.0 mi WSW 13.8 mph - N/A   Mostly Cloudy
9:53 AM 34.0 °F 25.0 °F 15.1 °F 46% 30.26 in 10.0 mi WSW 12.7 mph - N/A   Mostly Cloudy
10:53 AM 37.0 °F 28.9 °F 16.0 °F 42% 30.26 in 10.0 mi SW 12.7 mph - N/A   Mostly Cloudy
11:53 AM 39.9 °F 33.4 °F 16.0 °F 38% 30.25 in 10.0 mi WSW 10.4 mph - N/A   Mostly Cloudy
12:53 PM 43.0 °F 36.8 °F 18.0 °F 37% 30.23 in 10.0 mi WNW 11.5 mph - N/A   Mostly Cloudy
1:53 PM 45.0 °F 41.2 °F 19.0 °F 36% 30.20 in 10.0 mi West 6.9 mph 17.3 mph N/A   Mostly Cloudy
2:37 PM 48.0 °F - 17.1 °F 29% 30.13 in 10.0 mi WNW 25.3 mph 32.2 mph N/A   Scattered Clouds
2:53 PM 48.2 °F - 17.6 °F 30% 30.14 in 10.0 mi NW 21.9 mph 28.8 mph N/A   Scattered Clouds
3:53 PM 48.0 °F - 15.1 °F 27% 30.19 in 10.0 mi NNW 17.3 mph 23.0 mph N/A   Scattered Clouds
4:53 PM 45.0 °F 37.4 °F 16.0 °F 31% 30.22 in 10.0 mi NNW 18.4 mph - N/A   Partly Cloudy
5:53 PM 42.8 °F 35.8 °F 17.6 °F 36% 30.18 in 10.0 mi NNW 13.8 mph - N/A   Partly Cloudy
6:53 PM 37.9 °F 31.5 °F 17.1 °F 43% 30.28 in 10.0 mi NW 9.2 mph - N/A   Scattered Clouds
7:53 PM 37.0 °F 28.9 °F 17.1 °F 44% 30.31 in 10.0 mi WNW 12.7 mph - N/A   Clear
8:53 PM 35.1 °F 27.9 °F 17.1 °F 48% 30.32 in 10.0 mi NNW 9.2 mph - N/A   Clear
9:53 PM 35.1 °F 30.1 °F 18.0 °F 50% 30.32 in 10.0 mi South 5.8 mph - N/A   Clear
10:53 PM 30.9 °F 21.7 °F 17.1 °F 57% 30.33 in 10.0 mi SW 11.5 mph - N/A   Clear
11:53 PM 32.0 °F 22.1 °F 16.0 °F 52% 30.30 in 10.0 mi WSW 13.8 mph - N/A   Clear